Location: River House Observatory
(37.8577°N, 76.3548°W)
Time: 22:30:25
(UTC-04:00)

NOSS 3-1 (C) - Visible Passes

Search period start: 02 September 2015 00:00
Search period end: 12 September 2015 00:00
Orbit: 870 x 1339 km, 63.4° (Epoch: 01 September)

Date Brightness Start Highest point End Pass type
(mag) Time Alt. Az. Time Alt. Az. Time Alt. Az.
02 Sep 6.7 02:53:44 10° N 02:55:33 11° NNE 02:57:42 10° NE visible
02 Sep 5.5 04:42:08 10° NNW 04:48:55 36° NE 04:56:20 10° ESE visible
02 Sep 3.4 20:23:39 10° SSW 20:29:21 56° ESE 20:35:37 10° NE visible
02 Sep 5.4 22:15:35 10° W 22:20:42 27° NW 22:26:08 10° NNE visible
03 Sep 6.0 03:57:15 10° NNW 04:03:11 25° NE 04:09:41 10° E visible
03 Sep 4.1 05:47:21 10° NW 05:55:03 85° WSW 06:03:19 10° SSE visible
03 Sep 4.7 21:29:25 10° WSW 21:35:03 41° NW 21:41:11 10° NNE visible
03 Sep 6.5 23:26:20 10° NW 23:28:08 11° NNW 23:29:46 10° N visible
04 Sep 6.3 03:12:31 10° N 03:17:15 18° NNE 03:22:30 10° ENE visible
04 Sep 4.5 05:02:09 10° NNW 05:09:42 66° NE 05:17:53 10° SE visible
04 Sep 3.8 20:43:44 10° SW 20:49:36 66° NW 20:56:05 10° NNE visible
04 Sep 6.2 22:38:23 10° WNW 22:42:01 15° NNW 22:45:40 10° N visible
05 Sep 6.6 02:28:02 10° N 02:31:10 13° NNE 02:34:40 10° NE visible
05 Sep 5.1 04:17:04 10° NNW 04:24:12 45° NE 04:31:58 10° ESE visible
05 Sep 4.4 06:08:01 10° NW 06:15:19 44° WSW 06:22:57 10° S visible
05 Sep 3.4 19:58:30 10° SSW 20:04:22 76° ESE 20:10:48 10° NE visible
05 Sep 5.8 21:51:22 10° W 21:56:05 22° NW 22:01:00 10° N visible
06 Sep 5.6 03:32:08 10° NNW 03:38:33 31° NE 03:45:35 10° ESE visible
06 Sep 4.0 05:22:29 10° NW 05:30:08 69° WSW 05:38:18 10° SSE visible
06 Sep 5.2 21:04:56 10° WSW 21:10:19 32° NW 21:16:07 10° NNE visible
07 Sep 6.0 02:47:17 10° N 02:52:43 22° NE 02:58:42 10° E visible
07 Sep 4.1 04:37:11 10° NNW 04:44:51 81° ENE 04:53:07 10° SE visible
07 Sep 4.4 20:19:00 10° SW 20:24:46 50° NW 20:31:06 10° NNE visible
07 Sep 6.4 22:14:45 10° NW 22:17:33 13° NNW 22:20:16 10° N visible
08 Sep 6.3 02:02:39 10° N 02:06:43 16° NNE 02:11:16 10° ENE visible
08 Sep 4.6 03:52:02 10° NNW 03:59:26 55° NE 04:07:28 10° SE visible
08 Sep 4.6 05:43:23 10° NW 05:50:19 35° WSW 05:57:27 10° S visible
08 Sep 6.1 21:27:20 10° WNW 21:31:31 18° NNW 21:35:47 10° N visible
09 Sep 6.5 01:18:27 10° N 01:20:34 11° NNE 01:22:59 10° NE visible
09 Sep 5.2 03:07:01 10° NNW 03:13:52 38° NE 03:21:21 10° ESE visible
09 Sep 4.1 04:57:42 10° NW 05:05:11 54° WSW 05:13:07 10° S visible
09 Sep 5.6 20:40:36 10° W 20:45:39 26° NW 20:51:01 10° NNE visible
10 Sep 5.7 02:22:07 10° NNW 02:28:09 26° NE 02:34:45 10° E visible
10 Sep 3.9 04:12:16 10° NW 04:19:57 82° WSW 04:28:13 10° SSE visible
10 Sep 5.3 06:05:43 10° WNW 06:10:20 16° WSW 06:14:33 10° SW visible
10 Sep 5.0 19:54:23 10° WSW 19:59:59 39° NW 20:06:04 10° NNE visible
10 Sep 6.4 21:51:38 10° NW 21:53:08 11° NNW 21:54:27 10° N visible
11 Sep 6.1 01:37:22 10° N 01:42:14 19° NE 01:47:38 10° ENE visible
11 Sep 4.2 03:27:02 10° NNW 03:34:37 68° NE 03:42:49 10° SE visible
11 Sep 4.8 05:18:55 10° WNW 05:25:18 27° WSW 05:31:43 10° SSW visible
11 Sep 6.2 21:03:29 10° WNW 21:07:00 15° NNW 21:10:30 10° N visible
